Location: Strada George Coșbuc
(47.6577°N, 23.5639°E)
Time: 12:24:37
(UTC+03:00)

ISS - Pass Details

Date: 13 October 2017
Orbit: 400 x 408 km, 51.6° (Epoch: 24 October)

Event Time Altitude Azimuth Distance (km) Brightness Sun altitude
Rises 19:31:20 0° 293° (WNW) 2,326 1.4 -9.2°
Reaches altitude 10° 19:33:26 10° 289° (WNW) 1,465 0.3 -9.5°
Maximum altitude 19:36:40 58° 210° (SSW) 479 -3.3 -10.1°
Drops below altitude 10° 19:39:54 10° 130° (SE) 1,462 -1.5 -10.6°
Enters shadow 19:39:55 10° 130° (SE) 1,466 -1.4 -10.6°
